TimeICT,TemperatureF,Dew PointF,Humidity,Sea Level PressureIn,VisibilityMPH,Wind Direction,Wind SpeedMPH,Gust SpeedMPH,PrecipitationIn,Events,Conditions,WindDirDegrees,DateUTC
12:00 AM,75.2,73.4,94,29.92,6.2,Calm,Calm,-,N/A,,Mostly Cloudy,0,2012-10-05 17:00:00
12:30 AM,75.2,73.4,94,29.92,6.2,Calm,Calm,-,N/A,,Mostly Cloudy,0,2012-10-05 17:30:00
1:00 AM,78,75,88,29.85,6,Calm,Calm,,,,Scattered Clouds,,2012-10-05 18:00:00
1:00 AM,75.2,73.4,94,29.89,6.2,Calm,Calm,-,N/A,,Mostly Cloudy,0,2012-10-05 18:00:00
1:30 AM,75.2,73.4,94,29.89,6.2,Calm,Calm,-,N/A,,Mostly Cloudy,0,2012-10-05 18:30:00
2:00 AM,75.2,73.4,94,29.89,6.2,Calm,Calm,-,N/A,,Mostly Cloudy,0,2012-10-05 19:00:00
3:00 AM,75.2,73.4,94,29.86,6.2,Calm,Calm,-,N/A,,Mostly Cloudy,0,2012-10-05 20:00:00
4:00 AM,75.2,73.4,94,29.86,6.2,Calm,Calm,-,N/A,,Mostly Cloudy,0,2012-10-05 21:00:00
4:30 AM,75.2,73.4,94,29.86,6.2,Calm,Calm,-,N/A,,Mostly Cloudy,0,2012-10-05 21:30:00
5:00 AM,75.2,73.4,94,29.86,6.2,Calm,Calm,-,N/A,,Mostly Cloudy,0,2012-10-05 22:00:00
5:30 AM,77.0,75.2,94,29.86,6.2,WNW,6.9,-,N/A,,Mostly Cloudy,300,2012-10-05 22:30:00
6:00 AM,77.0,73.4,89,29.89,6.2,Calm,Calm,-,N/A,,Mostly Cloudy,0,2012-10-05 23:00:00
6:30 AM,78.8,73.4,83,29.89,6.2,NNW,8.1,-,N/A,,Mostly Cloudy,330,2012-10-05 23:30:00
7:00 AM,81,77,83,29.86,6,WNW,5.8,,,,Scattered Clouds,300,2012-10-06 00:00:00
7:00 AM,78.8,73.4,83,29.89,6.2,Calm,Calm,-,N/A,,Mostly Cloudy,0,2012-10-06 00:00:00
7:30 AM,78.8,73.4,83,29.89,6.2,WNW,5.8,-,N/A,,Mostly Cloudy,300,2012-10-06 00:30:00
8:00 AM,80.6,73.4,79,29.92,6.2,NW,5.8,-,N/A,,Mostly Cloudy,310,2012-10-06 01:00:00
8:30 AM,84.2,75.2,74,29.92,6.2,West,6.9,-,N/A,,Mostly Cloudy,280,2012-10-06 01:30:00
9:00 AM,84.2,75.2,74,29.92,6.2,WNW,9.2,-,N/A,,Mostly Cloudy,300,2012-10-06 02:00:00
9:30 AM,84.2,75.2,74,29.95,6.2,WNW,12.7,-,N/A,,Mostly Cloudy,290,2012-10-06 02:30:00
10:00 AM,84.2,75.2,74,29.95,6.2,West,12.7,-,N/A,,Mostly Cloudy,280,2012-10-06 03:00:00
10:30 AM,86.0,75.2,70,29.95,6.2,West,13.8,-,N/A,,Mostly Cloudy,270,2012-10-06 03:30:00
11:00 AM,84.2,75.2,74,29.92,6.2,West,13.8,-,N/A,,Mostly Cloudy,280,2012-10-06 04:00:00
11:30 AM,86.0,77.0,74,29.92,6.2,West,11.5,-,N/A,,Mostly Cloudy,280,2012-10-06 04:30:00
12:00 PM,86.0,75.2,70,29.92,6.2,West,12.7,-,N/A,,Mostly Cloudy,280,2012-10-06 05:00:00
12:30 PM,86.0,75.2,70,29.89,6.2,West,12.7,-,N/A,,Mostly Cloudy,280,2012-10-06 05:30:00
1:00 PM,85,74,63,29.85,7,West,4.6,,,,Scattered Clouds,270,2012-10-06 06:00:00
1:00 PM,86.0,73.4,66,29.89,6.2,West,13.8,-,N/A,,Mostly Cloudy,260,2012-10-06 06:00:00
1:30 PM,86.0,73.4,66,29.86,6.2,West,13.8,-,N/A,,Scattered Clouds,270,2012-10-06 06:30:00
2:00 PM,86.0,73.4,66,29.86,6.2,West,12.7,-,N/A,,Scattered Clouds,280,2012-10-06 07:00:00
2:30 PM,86.0,73.4,66,29.83,6.2,West,15.0,-,N/A,,Scattered Clouds,280,2012-10-06 07:30:00
3:00 PM,86.0,73.4,66,29.83,6.2,WNW,15.0,-,N/A,,Scattered Clouds,300,2012-10-06 08:00:00
4:00 PM,84.2,75.2,74,29.83,6.2,WNW,16.1,-,N/A,,Mostly Cloudy,290,2012-10-06 09:00:00
4:30 PM,86.0,75.2,70,29.83,6.2,West,18.4,-,N/A,,Mostly Cloudy,270,2012-10-06 09:30:00
5:00 PM,84.2,75.2,74,29.83,6.2,WNW,13.8,-,N/A,,Mostly Cloudy,290,2012-10-06 10:00:00
5:30 PM,82.4,75.2,79,29.83,4.3,WNW,12.7,-,N/A,Rain,Light Rain,300,2012-10-06 10:30:00
6:00 PM,82.4,75.2,79,29.86,5.6,WNW,13.8,-,N/A,,Mostly Cloudy,290,2012-10-06 11:00:00
6:30 PM,82.4,75.2,79,29.86,5.6,WNW,13.8,-,N/A,,Mostly Cloudy,290,2012-10-06 11:30:00
7:00 PM,83,77,77,29.81,6,West,5.8,,,,Partly Cloudy,270,2012-10-06 12:00:00
7:00 PM,82.4,75.2,79,29.86,5.6,West,13.8,-,N/A,,Mostly Cloudy,280,2012-10-06 12:00:00
7:30 PM,82.4,75.2,79,29.89,5.6,WNW,11.5,-,N/A,,Mostly Cloudy,290,2012-10-06 12:30:00
8:00 PM,82.4,75.2,79,29.89,5.6,WNW,9.2,-,N/A,,Mostly Cloudy,290,2012-10-06 13:00:00
8:30 PM,82.4,75.2,79,29.89,5.6,WNW,6.9,-,N/A,,Mostly Cloudy,290,2012-10-06 13:30:00
9:00 PM,82.4,75.2,79,29.92,5.6,WNW,10.4,-,N/A,,Mostly Cloudy,290,2012-10-06 14:00:00
9:30 PM,82.4,75.2,79,29.92,5.6,WNW,9.2,-,N/A,,Mostly Cloudy,290,2012-10-06 14:30:00
10:00 PM,82.4,75.2,79,29.92,5.6,WNW,8.1,-,N/A,,Mostly Cloudy,290,2012-10-06 15:00:00
10:30 PM,82.4,75.2,79,29.92,5.6,WNW,6.9,-,N/A,,Mostly Cloudy,290,2012-10-06 15:30:00
11:00 PM,82.4,75.2,79,29.92,5.6,West,8.1,-,N/A,,Mostly Cloudy,270,2012-10-06 16:00:00
11:30 PM,82.4,75.2,79,29.92,5.6,WNW,8.1,-,N/A,,Mostly Cloudy,290,2012-10-06 16:30:00